Location: Hiram
(41.3130°N, 81.1440°W)
Time: 12:11:58
(UTC-04:00)

Amateur Radio Satellites - All Passes

Search period start: 30 July 2015 11:41
Search period end: 31 July 2015 11:41
Location: Hiram, 41.3130°N, 81.1440°W

Satellite Date Start Highest point End Downlink Frequencies (MHz)
Time Altitude Azimuth
AISAT 30 Jul 11:42:58 11:46:24 23° 94° (E) 11:49:57 437.250
COMPASS 1 30 Jul 11:44:59 11:47:18 14° 295° (WNW) 11:49:25 437.405
O/OREOS (USA 219) 30 Jul 11:45:49 11:49:43 28° 58° (ENE) 11:53:41 437.305
POPSAT HIP 1 30 Jul 11:49:32 11:53:45 88° 267° (W) 11:57:57 437.405
Oscar 11 30 Jul 11:50:26 11:54:17 30° 290° (WNW) 11:58:04 145.826/435.025
UKube-1 30 Jul 11:51:08 11:55:14 41° 99° (E) 11:59:19 .
TIGRISAT 30 Jul 11:56:00 11:59:50 30° 265° (W) 12:03:43 435.000
QB50P2 30 Jul 11:56:39 12:00:51 71° 258° (WSW) 12:05:04 145.880/145.840
ANTELSAT 30 Jul 11:56:55 12:00:42 29° 265° (W) 12:04:32 437.575/2403.000
Cosmos 2491 30 Jul 11:59:32 12:05:54 24° 82° (E) 12:12:37 435.465 / 435.565
HO-68 30 Jul 11:59:48 12:05:06 22° 302° (WNW) 12:10:09 435.675
CUBEBUG 1 30 Jul 12:03:59 12:07:15 21° 93° (E) 12:10:36 437.445
BUGSAT 1 30 Jul 12:05:09 12:09:13 86° 78° (ENE) 12:13:16 437.445
HUMSAT D 30 Jul 12:15:05 12:19:22 62° 285° (WNW) 12:23:38 437.325/437.525
DX 1 30 Jul 12:15:44 12:20:06 87° 109° (ESE) 12:24:26 434.975-435.025
VELOX 1 30 Jul 12:22:03 12:26:24 58° 101° (E) 12:30:44 145.980
DUCHIFAT 1 30 Jul 12:24:06 12:27:59 36° 263° (W) 12:31:51 145.980
ESTCUBE 1 30 Jul 12:25:18 12:29:37 44° 98° (E) 12:33:54 437.505/2401.250
QB50P1 30 Jul 12:25:48 12:29:37 33° 263° (W) 12:33:27 145.935-145.965
NANOSAT C BR1 30 Jul 12:27:57 12:31:44 32° 264° (W) 12:35:31 145.865
DELFI C3 30 Jul 12:28:55 12:31:30 16° 294° (WNW) 12:33:56 145.870
50 SAT 30 Jul 12:34:58 12:38:57 75° 284° (WNW) 12:42:55 437.505
SPROUT 30 Jul 12:48:16 12:51:19 19° 92° (E) 12:54:30 437.525
ZACube-1 30 Jul 12:48:24 12:50:52 14° 295° (WNW) 12:53:08 437.345
TISAT 1 30 Jul 13:08:24 13:11:24 19° 93° (E) 13:14:30 437.305
Cosmos 2504 30 Jul 13:08:48 13:13:51 18° 61° (ENE) 13:19:27 435.465 / 435.565
POLYITAN 1 30 Jul 13:10:37 13:12:08 11° 272° (W) 13:13:25 437.675
Oscar 19 30 Jul 13:12:35 13:16:57 30° 68° (ENE) 13:21:26 437.125/150
AIST 1 30 Jul 13:15:06 13:19:28 82° 277° (W) 13:23:50
AISAT 30 Jul 13:19:06 13:23:03 33° 290° (WNW) 13:26:58 437.250
YUBILEINY 30 Jul 13:21:14 13:29:51 58° 268° (W) 13:38:23 435.215
O/OREOS (USA 219) 30 Jul 13:25:07 13:29:09 30° 255° (WSW) 13:33:07 437.305
UKube-1 30 Jul 13:28:03 13:31:05 18° 294° (WNW) 13:33:59 .
CUBEBUG 1 30 Jul 13:39:48 13:43:42 33° 290° (WNW) 13:47:34 437.445
Cosmos 2491 30 Jul 13:53:17 14:02:03 71° 281° (W) 14:10:49 435.465 / 435.565
Gurwin Techsat 1B 30 Jul 13:55:40 13:59:48 24° 66° (ENE) 14:04:05 435.225
VELOX 1 30 Jul 14:00:08 14:02:31 14° 296° (WNW) 14:04:43 145.980
ESTCUBE 1 30 Jul 14:03:02 14:06:11 18° 294° (WNW) 14:09:11 437.505/2401.250
SPROUT 30 Jul 14:23:35 14:27:33 36° 289° (WNW) 14:31:28 437.525
BEESAT 30 Jul 14:23:50 14:27:28 22° 93° (E) 14:31:13 436.000
ITAMSAT 1 30 Jul 14:28:35 14:33:27 42° 70° (ENE) 14:38:23 435.822/435.867
JAS-2 30 Jul 14:33:09 14:37:44 23° 60° (ENE) 14:42:56 435.910
TISAT 1 30 Jul 14:43:27 14:47:17 35° 289° (WNW) 14:51:06 437.305
SWISSCUBE 30 Jul 14:43:32 14:47:58 38° 97° (E) 14:52:23 437.505
Oscar 19 30 Jul 14:51:40 14:56:16 33° 264° (W) 15:00:50 437.125/150
Cosmos 2504 30 Jul 14:59:04 15:07:29 83° 82° (E) 15:16:08 435.465 / 435.565
ITUPSAT 1 30 Jul 15:03:21 15:08:03 54° 100° (E) 15:12:43 437.325
AO-7 30 Jul 15:17:35 15:24:58 38° 60° (ENE) 15:32:29 29.400- 29.500
Gurwin Techsat 1B 30 Jul 15:34:28 15:39:33 44° 262° (W) 15:44:38 435.225
KKS-1 30 Jul 15:47:16 15:51:00 26° 95° (E) 15:54:48 437.445
HORYU 2 30 Jul 15:51:14 15:55:13 34° 70° (ENE) 15:59:18 437.375
DANDE 30 Jul 15:51:56 15:55:01 27° 77° (ENE) 15:58:57 436.750
Cosmos 2491 30 Jul 15:56:20 16:00:57 14° 305° (NW) 16:04:59 435.465 / 435.565
BEESAT 30 Jul 16:01:01 16:05:29 39° 290° (WNW) 16:09:52 436.000
GONETS M04 30 Jul 16:08:15 16:11:36 13° 54° (NE) 16:15:35
ITAMSAT 1 30 Jul 16:08:57 16:13:10 24° 267° (W) 16:17:16 435.822/435.867
JAS-2 30 Jul 16:16:18 16:22:11 63° 260° (W) 16:28:55 435.910
SWISSCUBE 30 Jul 16:21:49 16:25:38 24° 293° (WNW) 16:29:19 437.505
CUSAT 1 30 Jul 16:25:13 16:29:11 74° 261° (W) 16:34:29 437.405
ITUPSAT 1 30 Jul 16:42:22 16:45:33 17° 296° (WNW) 16:48:33 437.325
Cosmos 2504 30 Jul 16:52:59 16:58:53 20° 279° (W) 17:04:28 435.465 / 435.565
STARS 30 Jul 17:01:07 17:05:33 81° 284° (WNW) 17:09:58 437.465
AO-7 30 Jul 17:09:25 17:17:33 53° 259° (W) 17:25:40 29.400- 29.500
KKS-1 30 Jul 17:23:45 17:27:37 29° 291° (WNW) 17:31:26 437.445
CUTE-I 30 Jul 17:23:54 17:26:36 15° 61° (ENE) 17:29:32 437.470
HORYU 2 30 Jul 17:28:28 17:31:58 22° 267° (W) 17:35:24 437.375
DANDE 30 Jul 17:35:18 17:38:05 19° 263° (W) 17:41:18 436.750
MOZHAYETS 4 30 Jul 18:00:23 18:05:03 87° 99° (E) 18:09:40
GONETS M04 30 Jul 18:01:58 18:10:38 67° 78° (ENE) 18:19:20
Cubesat XI-IV 30 Jul 18:04:59 18:09:42 33° 68° (ENE) 18:14:29 437.490
SO-50 30 Jul 18:20:42 18:24:51 26° 44° (NE) 18:29:01 436.795
PCSat 30 Jul 18:42:13 18:47:10 35° 51° (NE) 18:52:08 145.827
HO-68 30 Jul 18:57:36 18:59:32 11° 50° (NE) 19:01:53 435.675
CUTE-I 30 Jul 19:00:42 19:06:04 81° 256° (WSW) 19:11:29 437.470
Cosmos 2499 30 Jul 19:01:52 19:09:56 42° 72° (ENE) 19:18:16 435.465 / 435.565
VERMONT LUNAR 30 Jul 19:18:49 19:21:09 19° 153° (SSE) 19:23:31 437.305
STRAND 1 30 Jul 19:36:56 19:40:53 23° 93° (E) 19:44:55 437.568
MOZHAYETS 4 30 Jul 19:40:33 19:41:39 11° 298° (WNW) 19:42:29
BRITE-PL 30 Jul 19:41:31 19:45:21 29° 71° (ENE) 19:49:03 437.365/2234.400
Cubesat XI-IV 30 Jul 19:44:59 19:49:47 32° 264° (W) 19:54:33 437.490
CANX-2 30 Jul 19:47:00 19:47:52 11° 63° (ENE) 19:48:58 2200.000
CUBESAT XI-V 30 Jul 19:49:30 19:54:08 80° 284° (WNW) 19:58:43 437.345
DOVE 4 30 Jul 19:59:45 20:02:12 16° 66° (ENE) 20:04:47 437.250
GONETS M04 30 Jul 19:59:57 20:06:52 26° 277° (W) 20:13:30
SO-50 30 Jul 20:00:53 20:05:38 46° 243° (WSW) 20:10:14 436.795
GOMX 1 30 Jul 20:01:32 20:05:06 27° 71° (ENE) 20:08:40 467.674
PRISM 30 Jul 20:04:45 20:08:26 32° 97° (E) 20:12:08 437.425
CINEMA 3 30 Jul 20:22:43 20:24:20 12° 64° (ENE) 20:26:10 145.822/145.860
PCSat 30 Jul 20:25:41 20:30:35 35° 249° (WSW) 20:35:24 145.827
HO-68 30 Jul 20:39:01 20:45:58 58° 69° (ENE) 20:52:58 435.675
PHONESAT 2.4 30 Jul 20:41:58 20:43:53 14° 149° (SSE) 20:45:52 2401.200-2431.200
VERMONT LUNAR 30 Jul 20:54:25 20:57:34 59° 168° (SSE) 21:00:42 437.305
Cosmos 2499 30 Jul 20:55:01 21:03:13 46° 271° (W) 21:11:27 435.465 / 435.565
COMPASS 1 30 Jul 20:59:00 21:02:50 36° 72° (ENE) 21:06:45 437.405
CUBEBUG 2 30 Jul 21:04:00 21:06:33 16° 66° (ENE) 21:09:17 437.445
Oscar 11 30 Jul 21:09:52 21:12:55 20° 67° (ENE) 21:16:07 145.826/435.025
SEEDS 30 Jul 21:10:49 21:14:59 63° 76° (ENE) 21:19:14 437.485
CUTE 1.7 + AOD 2 30 Jul 21:10:51 21:15:07 79° 75° (ENE) 21:19:25 437.475
STRAND 1 30 Jul 21:15:29 21:20:18 42° 290° (WNW) 21:25:03 437.568
CANX-2 30 Jul 21:18:58 21:23:14 75° 258° (WSW) 21:27:33 2200.000
BRITE-PL 30 Jul 21:20:19 21:23:57 23° 266° (W) 21:27:19 437.365/2234.400
DOVE 4 30 Jul 21:35:43 21:39:41 42° 262° (W) 21:43:39 437.250
GOMX 1 30 Jul 21:39:47 21:43:17 24° 266° (W) 21:46:39 467.674
DELFI C3 30 Jul 21:40:13 21:43:34 26° 70° (ENE) 21:47:01 145.870
PRISM 30 Jul 21:40:34 21:43:42 21° 293° (WNW) 21:46:44 437.425
AAUSAT CUBESAT 2 30 Jul 21:41:31 21:45:43 86° 257° (WSW) 21:49:58 437.432
CINEMA 3 30 Jul 21:57:00 22:01:05 58° 260° (W) 22:05:14 145.822/145.860
ZACube-1 30 Jul 22:06:33 22:10:33 46° 73° (ENE) 22:14:40 437.345
RS-15 30 Jul 22:09:57 22:20:25 58° 114° (ESE) 22:31:19 29.354- 29.394
Cosmos 2491 30 Jul 22:10:59 22:12:52 11° 52° (NE) 22:15:28 435.465 / 435.565
PHONESAT 2.4 30 Jul 22:18:00 22:21:24 47° 163° (SSE) 22:24:48 2401.200-2431.200
ISS 30 Jul 22:18:22 22:21:31 52° 141° (SE) 22:24:43 145.825
UWE-3 30 Jul 22:26:33 22:30:43 78° 258° (WSW) 22:35:00 435.000/436.395/437.385
HO-68 30 Jul 22:28:13 22:34:09 27° 267° (W) 22:39:55 435.675
FUNcube-1 30 Jul 22:28:49 22:32:59 82° 77° (ENE) 22:37:16 145.935
VERMONT LUNAR 30 Jul 22:31:04 22:34:15 76° 183° (S) 22:37:24 437.305
COMPASS 1 30 Jul 22:35:36 22:38:39 19° 268° (W) 22:41:36 437.405
CUBEBUG 2 30 Jul 22:38:58 22:42:56 43° 262° (W) 22:47:00 437.445
M-CUBED/EXP-1 PRIME 30 Jul 22:39:01 22:43:29 38° 102° (ESE) 22:47:53 437.505
AISAT 30 Jul 22:41:04 22:44:22 22° 67° (ENE) 22:47:45 437.250
Oscar 11 30 Jul 22:44:49 22:48:52 38° 263° (W) 22:52:56 145.826/435.025
UKube-1 30 Jul 22:45:57 22:49:52 35° 71° (ENE) 22:53:51 .
SEEDS 30 Jul 22:50:03 22:51:18 11° 273° (W) 22:52:17 437.485
CUBEBUG 1 30 Jul 23:00:36 23:03:37 19° 67° (ENE) 23:06:45 437.445
UNISAT 6 30 Jul 23:03:33 23:06:55 20° 92° (E) 23:10:26 437.425
HUMSAT D 30 Jul 23:06:30 23:10:37 89° 257° (WSW) 23:14:51 437.325/437.525
AUBIESAT-1 30 Jul 23:09:49 23:14:35 68° 106° (ESE) 23:19:12 437.475
DX 1 30 Jul 23:11:05 23:15:25 75° 75° (ENE) 23:19:46 434.975-435.025
DELFI C3 30 Jul 23:15:14 23:18:36 24° 266° (W) 23:21:55 145.870
50 SAT 30 Jul 23:18:28 23:22:15 57° 75° (ENE) 23:26:07 437.505
VELOX 1 30 Jul 23:19:29 23:23:45 52° 73° (ENE) 23:28:03 145.980
AIST 1 30 Jul 23:22:47 23:26:12 23° 73° (ENE) 23:29:40
ESTCUBE 1 30 Jul 23:24:50 23:29:05 41° 71° (ENE) 23:33:22 437.505/2401.250
POPSAT HIP 1 30 Jul 23:35:56 23:38:18 15° 90° (E) 23:40:52 437.405
QB50P2 30 Jul 23:42:43 23:45:41 19° 92° (E) 23:48:46 145.880/145.840
SPROUT 30 Jul 23:43:11 23:45:44 16° 66° (ENE) 23:48:26 437.525
ZACube-1 30 Jul 23:44:52 23:47:15 14° 271° (W) 23:49:30 437.345
TIGRISAT 30 Jul 23:46:41 23:51:16 53° 99° (E) 23:55:53 435.000
ANTELSAT 30 Jul 23:47:46 23:52:24 57° 100° (E) 23:57:03 437.575/2403.000
BUGSAT 1 30 Jul 23:49:10 23:50:38 12° 89° (E) 23:52:20 437.445
ISS 30 Jul 23:55:21 23:58:08 25° 338° (NNW) 00:00:54 145.825
PHONESAT 2.4 30 Jul 23:55:45 23:59:16 80° 182° (S) 00:02:46 2401.200-2431.200
BEESAT 2 30 Jul 23:56:49 23:59:36 18° 112° (ESE) 00:02:31 435.950
TISAT 1 31 Jul 00:01:20 00:03:44 16° 66° (ENE) 00:06:18 437.305
Cosmos 2491 31 Jul 00:03:39 00:12:13 59° 77° (ENE) 00:20:48 435.465 / 435.565
VERMONT LUNAR 31 Jul 00:07:54 00:10:48 33° 201° (SSW) 00:13:40 437.305
DUCHIFAT 1 31 Jul 00:08:26 00:12:16 33° 97° (E) 00:16:08 145.980
QB50P1 31 Jul 00:10:26 00:14:21 36° 97° (E) 00:18:19 145.935-145.965
NANOSAT C BR1 31 Jul 00:12:17 00:16:14 37° 97° (E) 00:20:13 145.865
M-CUBED/EXP-1 PRIME 31 Jul 00:14:03 00:18:04 26° 297° (WNW) 00:21:55 437.505
AISAT 31 Jul 00:16:41 00:20:45 35° 263° (W) 00:24:48 437.250
RS-15 31 Jul 00:22:46 00:33:14 46° 318° (NW) 00:44:02 29.354- 29.394
UKube-1 31 Jul 00:22:53 00:26:08 20° 267° (W) 00:29:17 .
YUBILEINY 31 Jul 00:26:18 00:33:48 35° 86° (E) 00:41:32 435.215
CUBEBUG 1 31 Jul 00:35:37 00:39:43 40° 262° (W) 00:43:49 437.445
BEESAT 3 31 Jul 00:37:31 00:41:33 67° 120° (ESE) 00:45:37 437.485
UNISAT 6 31 Jul 00:39:28 00:43:54 42° 288° (WNW) 00:48:19 437.425
AUBIESAT-1 31 Jul 00:45:51 00:48:45 16° 302° (WNW) 00:51:27 437.475
POLYITAN 1 31 Jul 00:52:32 00:56:48 72° 285° (WNW) 01:01:04 437.675
50 SAT 31 Jul 00:56:54 00:57:17 10° 272° (W) 00:57:24 437.505
VELOX 1 31 Jul 00:58:11 01:00:40 14° 270° (W) 01:02:58 145.980
AIST 1 31 Jul 01:00:14 01:03:52 27° 269° (W) 01:07:24
ESTCUBE 1 31 Jul 01:02:53 01:06:10 19° 268° (W) 01:09:19 437.505/2401.250
POPSAT HIP 1 31 Jul 01:10:23 01:14:28 46° 287° (WNW) 01:18:33 437.405
SPROUT 31 Jul 01:17:22 01:21:29 46° 261° (W) 01:25:37 437.525
QB50P2 31 Jul 01:17:47 01:21:44 37° 289° (WNW) 01:25:39 145.880/145.840
AIST 2 31 Jul 01:18:29 01:22:12 31° 115° (ESE) 01:26:00 435.215
BUGSAT 1 31 Jul 01:22:31 01:26:29 53° 286° (WNW) 01:30:27 437.445
TIGRISAT 31 Jul 01:24:34 01:27:38 17° 295° (WNW) 01:30:34 435.000
ANTELSAT 31 Jul 01:25:49 01:28:45 16° 295° (WNW) 01:31:32 437.575/2403.000
BEESAT 31 Jul 01:30:21 01:34:16 26° 67° (ENE) 01:38:17 436.000
BEESAT 2 31 Jul 01:33:28 01:37:23 42° 308° (NW) 01:41:20 435.950
ISS 31 Jul 01:33:40 01:35:24 14° 358° (N) 01:37:09 145.825
PHONESAT 2.4 31 Jul 01:33:44 01:37:08 48° 197° (SSW) 01:40:30 2401.200-2431.200
TISAT 1 31 Jul 01:35:08 01:39:10 46° 261° (W) 01:43:13 437.305
DUCHIFAT 1 31 Jul 01:44:39 01:47:54 21° 292° (WNW) 01:51:05 145.980
QB50P1 31 Jul 01:46:52 01:50:00 20° 293° (WNW) 01:53:02 145.935-145.965
NANOSAT C BR1 31 Jul 01:48:46 01:51:50 19° 293° (WNW) 01:54:48 145.865
SWISSCUBE 31 Jul 01:49:58 01:54:30 44° 71° (ENE) 01:59:05 437.505
O/OREOS (USA 219) 31 Jul 01:58:15 02:02:06 29° 104° (ESE) 02:06:02 437.305
Cosmos 2491 31 Jul 02:01:21 02:08:38 30° 276° (W) 02:15:39 435.465 / 435.565
ITUPSAT 1 31 Jul 02:09:59 02:14:43 63° 74° (ENE) 02:19:31 437.325
BEESAT 3 31 Jul 02:17:26 02:19:56 15° 319° (NW) 02:22:23 437.485
YUBILEINY 31 Jul 02:21:59 02:30:24 51° 285° (WNW) 02:38:51 435.215
RS-15 31 Jul 02:41:17 02:49:37 22° 351° (N) 02:58:07 29.354- 29.394
ITAMSAT 1 31 Jul 02:42:51 02:45:30 14° 89° (E) 02:48:25 435.822/435.867
KKS-1 31 Jul 02:45:42 02:49:15 25° 68° (ENE) 02:52:55 437.445
AIST 2 31 Jul 02:57:03 03:00:47 28° 312° (NW) 03:04:29 435.215
Oscar 19 31 Jul 03:02:21 03:07:33 87° 99° (E) 03:12:46 437.125/150
BEESAT 31 Jul 03:07:38 03:11:59 34° 263° (W) 03:16:20 436.000
ISS 31 Jul 03:10:16 03:12:46 20° 18° (NNE) 03:15:16 145.825
PHONESAT 2.4 31 Jul 03:12:39 03:14:38 14° 211° (SSW) 03:16:34 2401.200-2431.200
JAS-2 31 Jul 03:25:36 03:31:34 24° 88° (E) 03:37:45 435.910
SWISSCUBE 31 Jul 03:29:03 03:32:36 20° 268° (W) 03:36:01 437.505
Cosmos 2504 31 Jul 03:29:42 03:36:36 61° 92° (E) 03:44:04 435.465 / 435.565
O/OREOS (USA 219) 31 Jul 03:37:40 03:41:30 27° 302° (WNW) 03:45:20 437.305
Gurwin Techsat 1B 31 Jul 03:50:17 03:55:37 74° 102° (ESE) 04:00:55 435.225
ITUPSAT 1 31 Jul 03:50:34 03:53:08 14° 271° (W) 03:55:27 437.325
STARS 31 Jul 03:57:45 04:02:07 88° 76° (ENE) 04:06:31 437.465
ITAMSAT 1 31 Jul 04:20:26 04:25:36 67° 287° (WNW) 04:30:43 435.822/435.867
KKS-1 31 Jul 04:21:51 04:25:47 30° 264° (W) 04:29:41 437.445
Oscar 19 31 Jul 04:43:58 04:46:16 13° 300° (WNW) 04:48:20 437.125/150
ISS 31 Jul 04:46:17 04:49:33 88° 212° (SSW) 04:52:49 145.825
RS-15 31 Jul 04:57:46 05:07:15 29° 25° (NNE) 05:17:16 29.354- 29.394
MOZHAYETS 4 31 Jul 05:01:59 05:06:37 81° 78° (ENE) 05:11:19
DANDE 31 Jul 05:05:14 05:08:16 29° 98° (E) 05:10:51 436.750
JAS-2 31 Jul 05:09:28 05:17:16 73° 287° (WNW) 05:25:00 435.910
AO-7 31 Jul 05:10:39 05:18:47 55° 102° (ESE) 05:26:54 29.400- 29.500
GONETS M04 31 Jul 05:12:10 05:15:40 14° 77° (ENE) 05:19:48
HORYU 2 31 Jul 05:18:17 05:22:48 70° 102° (ESE) 05:27:17 437.375
CUBESAT XI-V 31 Jul 05:19:07 05:20:23 11° 62° (ENE) 05:21:55 437.345
Cosmos 2504 31 Jul 05:23:46 05:29:32 24° 295° (WNW) 05:35:24 435.465 / 435.565
Gurwin Techsat 1B 31 Jul 05:31:54 05:35:02 16° 298° (WNW) 05:37:57 435.225
CUSAT 1 31 Jul 05:34:44 05:37:37 42° 281° (WNW) 05:40:09 437.405
Cubesat XI-IV 31 Jul 06:24:04 06:25:56 12° 87° (E) 06:28:10 437.490
CUBESAT XI-V 31 Jul 06:52:32 06:57:14 83° 259° (W) 07:01:56 437.345
STRAND 1 31 Jul 06:52:39 06:57:13 34° 69° (ENE) 07:01:51 437.568
PRISM 31 Jul 06:54:56 06:58:20 25° 69° (ENE) 07:01:48 437.425
JAS-2 31 Jul 06:56:32 07:01:11 17° 304° (NW) 07:05:29 435.910
HORYU 2 31 Jul 06:56:53 06:58:54 13° 297° (WNW) 07:00:43 437.375
GONETS M04 31 Jul 07:02:32 07:11:12 76° 95° (E) 07:19:54
AO-7 31 Jul 07:03:55 07:11:19 36° 300° (WNW) 07:18:32 29.400- 29.500
RS-15 31 Jul 07:10:30 07:22:16 72° 53° (NE) 07:34:30 29.354- 29.394
CUTE-I 31 Jul 07:18:00 07:22:59 40° 97° (E) 07:27:59 437.470
Cosmos 2499 31 Jul 07:39:50 07:45:49 29° 84° (E) 07:52:24 435.465 / 435.565
Cubesat XI-IV 31 Jul 08:01:27 08:06:49 81° 286° (WNW) 08:12:08 437.490
BEESAT 2 31 Jul 08:15:27 08:17:47 15° 40° (NE) 08:20:12 435.950
PRISM 31 Jul 08:30:04 08:33:41 27° 264° (W) 08:37:16 437.425
STRAND 1 31 Jul 08:31:57 08:36:27 29° 265° (W) 08:40:53 437.568
BEESAT 3 31 Jul 08:56:04 08:59:54 39° 52° (NE) 09:03:41 437.485
CUTE 1.7 + AOD 2 31 Jul 08:57:37 08:59:45 14° 89° (E) 09:02:06 437.475
SEEDS 31 Jul 08:57:49 08:58:35 11° 87° (E) 08:59:39 437.485
CUTE-I 31 Jul 08:58:29 09:02:54 27° 294° (WNW) 09:07:13 437.470
GONETS M04 31 Jul 09:02:20 09:09:08 23° 297° (WNW) 09:15:36
CANX-2 31 Jul 09:05:07 09:08:08 19° 92° (E) 09:11:16 2200.000
BRITE-PL 31 Jul 09:23:00 09:27:21 83° 283° (WNW) 09:32:00 437.365/2234.400
RS-15 31 Jul 09:23:49 09:34:05 34° 253° (WSW) 09:44:15 29.354- 29.394
PCSat 31 Jul 09:24:20 09:28:55 30° 110° (ESE) 09:33:38 145.827
AAUSAT CUBESAT 2 31 Jul 09:25:45 09:28:06 15° 90° (E) 09:30:36 437.432
M-CUBED/EXP-1 PRIME 31 Jul 09:26:56 09:30:44 44° 67° (ENE) 09:34:55 437.505
Cosmos 2499 31 Jul 09:31:22 09:38:33 53° 285° (WNW) 09:46:18 435.465 / 435.565
DOVE 4 31 Jul 09:33:29 09:37:53 46° 99° (E) 09:42:34 437.250
GOMX 1 31 Jul 09:39:28 09:43:58 86° 106° (ESE) 09:48:47 467.674
AIST 2 31 Jul 09:40:05 09:43:27 23° 45° (NE) 09:46:50 435.215
Cubesat XI-IV 31 Jul 09:44:22 09:46:10 11° 301° (WNW) 09:47:40 437.490
CINEMA 3 31 Jul 09:51:12 09:55:24 32° 96° (E) 09:59:46 145.822/145.860
BEESAT 2 31 Jul 09:52:16 09:56:19 68° 240° (WSW) 10:00:18 435.950
HO-68 31 Jul 09:53:58 10:01:04 60° 101° (ESE) 10:08:10 435.675
AUBIESAT-1 31 Jul 09:57:10 10:01:11 84° 72° (ENE) 10:05:34 437.475
UNISAT 6 31 Jul 10:03:20 10:06:07 17° 65° (ENE) 10:09:05 437.425
SO-50 31 Jul 10:14:39 10:19:18 59° 119° (ESE) 10:24:08 436.795
UWE-3 31 Jul 10:16:39 10:20:11 22° 93° (E) 10:23:51 435.000/436.395/437.385
COMPASS 1 31 Jul 10:17:23 10:21:37 69° 101° (E) 10:25:48 437.405
FUNcube-1 31 Jul 10:17:58 10:20:49 17° 90° (E) 10:23:50 145.935
CUBEBUG 2 31 Jul 10:29:21 10:33:39 38° 97° (E) 10:38:04 437.445
POPSAT HIP 1 31 Jul 10:29:58 10:31:32 12° 64° (ENE) 10:33:19 437.405
SEEDS 31 Jul 10:30:39 10:34:54 65° 286° (WNW) 10:39:06 437.485
CUTE 1.7 + AOD 2 31 Jul 10:31:51 10:36:02 51° 286° (WNW) 10:40:11 437.475
Oscar 11 31 Jul 10:31:54 10:35:56 36° 97° (E) 10:39:58 145.826/435.025
BEESAT 3 31 Jul 10:34:42 10:37:35 18° 248° (WSW) 10:40:19 437.485
QB50P2 31 Jul 10:36:32 10:38:51 15° 65° (ENE) 10:41:21 145.880/145.840
YUBILEINY 31 Jul 10:36:41 10:41:52 17° 58° (ENE) 10:47:34 435.215
CANX-2 31 Jul 10:40:13 10:44:13 37° 288° (WNW) 10:48:09 2200.000
TIGRISAT 31 Jul 10:45:35 10:49:41 45° 72° (ENE) 10:53:55 435.000
ANTELSAT 31 Jul 10:46:50 10:51:00 48° 73° (ENE) 10:55:19 437.575/2403.000
HUMSAT D 31 Jul 10:51:36 10:54:07 15° 90° (E) 10:56:47 437.325/437.525
DELFI C3 31 Jul 10:53:24 10:57:15 42° 98° (E) 11:01:06 145.870
AAUSAT CUBESAT 2 31 Jul 10:59:57 11:03:59 45° 287° (WNW) 11:07:58 437.432
DUCHIFAT 1 31 Jul 11:01:05 11:04:29 25° 69° (ENE) 11:07:58 145.980
DX 1 31 Jul 11:01:16 11:03:03 13° 89° (E) 11:05:04 434.975-435.025
M-CUBED/EXP-1 PRIME 31 Jul 11:03:19 11:05:53 16° 266° (W) 11:08:25 437.505
QB50P1 31 Jul 11:03:23 11:06:56 28° 69° (ENE) 11:10:33 145.935-145.965
NANOSAT C BR1 31 Jul 11:05:01 11:08:35 28° 70° (ENE) 11:12:13 145.865
PCSat 31 Jul 11:07:09 11:12:13 40° 307° (NW) 11:17:19 145.827
DOVE 4 31 Jul 11:12:09 11:15:25 19° 292° (WNW) 11:18:39 437.250
Cosmos 2491 31 Jul 11:15:18 11:17:33 12° 76° (ENE) 11:20:33 435.465 / 435.565
AIST 2 31 Jul 11:18:16 11:22:09 38° 244° (WSW) 11:25:57 435.215
GOMX 1 31 Jul 11:21:10 11:21:38 10° 296° (WNW) 11:21:49 467.674
CINEMA 3 31 Jul 11:28:35 11:32:30 27° 291° (WNW) 11:36:28 145.822/145.860
ZACube-1 31 Jul 11:30:43 11:35:17 80° 282° (WNW) 11:39:51 437.345
